TimeCDT,TemperatureF,Dew PointF,Humidity,Sea Level PressureIn,VisibilityMPH,Wind Direction,Wind SpeedMPH,Gust SpeedMPH,PrecipitationIn,Events,Conditions,WindDirDegrees,DateUTC
12:53 AM,51.1,37.9,61,30.14,10.0,SE,4.6,-,N/A,,Clear,130,2011-10-02 05:53:00
1:53 AM,44.6,37.4,76,30.15,10.0,East,3.5,-,N/A,,Clear,90,2011-10-02 06:53:00
2:53 AM,46.0,39.0,76,30.15,10.0,ESE,4.6,-,N/A,,Clear,120,2011-10-02 07:53:00
3:53 AM,45.0,37.9,76,30.15,10.0,ESE,4.6,-,N/A,,Clear,110,2011-10-02 08:53:00
4:53 AM,44.6,37.4,76,30.15,10.0,SE,4.6,-,N/A,,Clear,130,2011-10-02 09:53:00
5:53 AM,39.9,36.0,86,30.16,10.0,SE,3.5,-,N/A,,Clear,130,2011-10-02 10:53:00
6:53 AM,42.1,37.0,82,30.17,10.0,ESE,4.6,-,N/A,,Clear,120,2011-10-02 11:53:00
7:53 AM,37.0,33.1,86,30.18,10.0,Calm,Calm,-,N/A,,Clear,0,2011-10-02 12:53:00
8:53 AM,46.4,39.2,76,30.16,10.0,ESE,4.6,-,N/A,,Clear,120,2011-10-02 13:53:00
9:53 AM,60.8,37.4,42,30.16,10.0,South,10.4,-,N/A,,Clear,170,2011-10-02 14:53:00
10:53 AM,66.9,37.9,34,30.14,10.0,South,17.3,-,N/A,,Clear,190,2011-10-02 15:53:00
11:53 AM,72.0,37.0,28,30.13,10.0,SSW,16.1,20.7,N/A,,Clear,200,2011-10-02 16:53:00
12:53 PM,75.2,35.6,24,30.12,10.0,South,17.3,25.3,N/A,,Clear,190,2011-10-02 17:53:00
1:53 PM,79.0,35.1,20,30.09,10.0,South,18.4,25.3,N/A,,Clear,190,2011-10-02 18:53:00
2:53 PM,81.0,35.1,19,30.06,10.0,South,21.9,27.6,N/A,,Clear,190,2011-10-02 19:53:00
3:53 PM,81.0,35.1,19,30.05,10.0,South,18.4,25.3,N/A,,Clear,170,2011-10-02 20:53:00
4:53 PM,81.0,36.0,20,30.04,10.0,South,16.1,23.0,N/A,,Clear,170,2011-10-02 21:53:00
5:53 PM,79.0,37.0,22,30.05,10.0,SSE,12.7,-,N/A,,Clear,160,2011-10-02 22:53:00
6:53 PM,75.0,39.0,27,30.05,10.0,SSE,9.2,-,N/A,,Clear,160,2011-10-02 23:53:00
7:53 PM,69.1,39.0,33,30.08,10.0,SE,8.1,-,N/A,,Clear,140,2011-10-03 00:53:00
8:53 PM,66.0,39.9,38,30.08,10.0,SE,9.2,-,N/A,,Clear,140,2011-10-03 01:53:00
9:53 PM,63.0,39.9,43,30.07,10.0,SSE,6.9,-,N/A,,Clear,150,2011-10-03 02:53:00
10:53 PM,61.0,39.9,46,30.08,10.0,SSE,4.6,-,N/A,,Clear,160,2011-10-03 03:53:00
11:53 PM,57.9,39.9,51,30.09,10.0,SSE,3.5,-,N/A,,Clear,160,2011-10-03 04:53:00